Miscellaneous Local Product
Issued by NWS Hastings, NE

Home | Current Version | Previous Version | Text Only | Print | Product List | Glossary Off
Versions: 1 2 3 4 5 6 7 8 9 10 11 12 13 14 15 16 17 18 19 20 21 22 23 24 25 26 27 28 29 30 31 32 33 34 35 36 37 38 39 40 41 42 43 44 45 46 47 48 49 50

000
AXUS43 KGID 302302
MISGRI

GID CWA HOURLY WEATHER ROUNDUP
NATIONAL WEATHER SERVICE HASTINGS NE
600 PM CDT THU JUL 30 2015

NOTE: "FAIR" INDICATES FEW OR NO CLOUDS BELOW 12,000 FEET WITH NO
SIGNIFICANT WEATHER AND/OR OBSTRUCTIONS TO VISIBILITY.

...SOUTH CENTRAL NEBRASKA...

CITY           SKY/WX    TMP DP  RH WIND       PRES   REMARKS
GRAND ISLAND   SUNNY     88  63  43 S9        30.16F
HASTINGS       MOSUNNY   87  64  46 VRB3      30.16F
KEARNEY        SUNNY     86  64  48 SW7       30.17S
ORD            SUNNY     89  61  38 SW8       30.13F
YORK           SUNNY     84  64  51 S6        30.16F
AURORA         SUNNY     85  66  52 CALM      30.16F
LEXINGTON      SUNNY     89  60  38 S8        30.17F
HOLDREGE       SUNNY     86  61  41 SE5       30.17F
HEBRON         SUNNY     87  59  38 SE3       30.15F

...NEBRASKA PANHANDLE...

CITY           SKY/WX    TMP DP  RH WIND       PRES   REMARKS
CHADRON        SUNNY     89  43  20 CALM      30.20F
ALLIANCE       SUNNY     89  51  27 NE7       30.22F
SCOTTSBLUFF    SUNNY     90  42  18 E7        30.22F
SIDNEY         PTSUNNY   85  58  39 S18G26    30.24S

...WESTERN AND NORTH CENTRAL NEBRASKA...

CITY           SKY/WX    TMP DP  RH WIND       PRES   REMARKS
VALENTINE      SUNNY     91  42  18 N12       30.16F
AINSWORTH      SUNNY     90  52  27 NE8       30.16S
ONEILL         PTSUNNY   90  57  32 N6        30.14F
BROKEN BOW     SUNNY     87  63  44 W9        30.17F
IMPERIAL       MOSUNNY   88  54  31 SE12      30.18F
NORTH PLATTE   SUNNY     89  59  36 S8        30.16F
MCCOOK         SUNNY     91  58  32 SE7       30.16F HX  90

...EASTERN NEBRASKA...

CITY           SKY/WX    TMP DP  RH WIND       PRES   REMARKS
NORFOLK        MOSUNNY   87  61  41 S9        30.13F
SO SIOUX CITY  SUNNY     86  68  54 SW7       30.10F
TEKAMAH        SUNNY     86  69  56 SW6       30.12F HX  90
COLUMBUS       SUNNY     86  64  48 SW5       30.13F
ALBION         SUNNY     88  59  37 S8        30.14F
OMAHA EPPLEY   MOSUNNY   91  58  32 VRB7      30.12F HX  90
OFFUTT AFB     SUNNY     88  61  40 VRB6      30.12F
MILLARD        SUNNY     89  59  35 SW8       30.12F
LINCOLN        SUNNY     89  57  33 S9        30.14F
NEBRASKA CITY  SUNNY     85  58  38 W6        30.14F
BEATRICE       SUNNY     85  61  43 S8        30.15S
FALLS CITY     SUNNY     86  63  45 S6        30.13F

...NORTHERN KANSAS...

CITY           SKY/WX    TMP DP  RH WIND       PRES   REMARKS
GOODLAND       SUNNY     88  56  33 S12       30.21F
HILL CITY      SUNNY     89  64  43 CALM      30.16F HX  90
NORTON         CLEAR     88  59  37 SE5       30.16F
PHILLIPSBURG   MOSUNNY   91  63  38 S3        30.15F HAZE    HX  92
SMITH CENTER   SUNNY     88  64  45 SE3       30.15F
HAYS           MOSUNNY   88  64  45 S7        30.15F
RUSSELL        PTSUNNY   85  67  54 S6        30.14F
CONCORDIA      MOSUNNY   86  68  54 SE8       30.14F
SALINA         MOSUNNY   86  67  52 S6        30.13F
TOPEKA         MOSUNNY   85  60  42 E5        30.14F



USA.gov is the U.S. government's official web portal to all federal, state and local government web resources and services.